| time (UTC) | temp F | wind direction | speed knots | gust knots | rain 1hr in | rain 24hr in | rain mn in | humidity % | barometer mb |
| 20260507043032 | 59 | 300 | 0.0 | 0.0 | 0.00 | 0.00 | 0.00 | 69 | 1011.1 |
| 20260507041513 | 60 | 300 | 0.0 | 0.0 | 0.00 | 0.00 | 0.00 | 67 | 1011.2 |
| 20260507040013 | 61 | 300 | 0.0 | 0.0 | 0.00 | 0.00 | 0.00 | 65 | 1011.2 |
| 20260507034551 | 62 | 300 | 0.0 | 0.0 | 0.00 | 0.00 | 0.00 | 63 | 1011.1 |
| 20260507033051 | 63 | 300 | 0.0 | 0.0 | 0.00 | 0.00 | 0.00 | 59 | 1011.0 |
| 20260507031534 | 65 | 300 | 0.0 | 0.0 | 0.00 | 0.00 | 0.00 | 55 | 1011.0 |
| 20260507030037 | 65 | 300 | 0.0 | 0.0 | 0.00 | 0.00 | 0.00 | 53 | 1010.9 |
| 20260507024517 | 66 | 300 | 0.0 | 0.0 | 0.00 | 0.00 | 0.00 | 51 | 1011.0 |
| 20260507023014 | 67 | 300 | 4.3 | 0.0 | 0.00 | 0.00 | 0.00 | 49 | 1011.0 |
| 20260507021623 | 67 | 296 | 4.3 | 0.0 | 0.00 | 0.00 | 0.00 | 48 | 1011.1 |
| 20260507020058 | 68 | 288 | 4.3 | 0.0 | 0.00 | 0.00 | 0.00 | 47 | 1010.8 |
| 20260507014559 | 69 | 291 | 4.3 | 0.0 | 0.00 | 0.00 | 0.00 | 45 | 1010.9 |
| 20260507013038 | 70 | 277 | 5.2 | 0.0 | 0.00 | 0.00 | 0.00 | 45 | 1010.8 |
| 20260507011540 | 70 | 284 | 5.2 | 0.0 | 0.00 | 0.00 | 0.00 | 44 | 1010.7 |
| 20260507010032 | 71 | 293 | 4.3 | 0.0 | 0.00 | 0.00 | 0.00 | 43 | 1010.7 |
| 20260507004522 | 71 | 284 | 4.3 | 0.0 | 0.00 | 0.00 | 0.00 | 41 | 1010.8 |
| 20260507003004 | 71 | 288 | 7.8 | 0.0 | 0.00 | 0.00 | 0.00 | 43 | 1010.9 |
| 20260507001502 | 71 | 288 | 7.8 | 0.0 | 0.00 | 0.00 | 0.00 | 44 | 1010.7 |
| 20260507000044 | 71 | 298 | 8.7 | 0.0 | 0.00 | 0.00 | 0.00 | 43 | 1010.6 |
| 20260506234552 | 72 | 280 | 8.7 | 0.0 | 0.00 | 0.00 | 0.00 | 44 | 1010.5 |
| 20260506233025 | 74 | 293 | 6.1 | 0.0 | 0.00 | 0.00 | 0.00 | 42 | 1010.6 |
| 20260506231527 | 74 | 284 | 5.2 | 0.0 | 0.00 | 0.00 | 0.00 | 42 | 1010.7 |
| 20260506230006 | 73 | 287 | 6.1 | 0.0 | 0.00 | 0.00 | 0.00 | 41 | 1011.0 |
| 20260506224506 | 73 | 291 | 5.2 | 0.0 | 0.00 | 0.00 | 0.00 | 41 | 1011.3 |
| 20260506223055 | 73 | 308 | 5.2 | 0.0 | 0.00 | 0.00 | 0.00 | 41 | 1011.5 |
| 20260506221547 | 73 | 281 | 3.5 | 0.0 | 0.00 | 0.00 | 0.00 | 41 | 1011.7 |
| 20260506220035 | 72 | 289 | 4.3 | 0.0 | 0.00 | 0.00 | 0.00 | 41 | 1011.9 |
| 20260506214532 | 73 | 277 | 4.3 | 0.0 | 0.00 | 0.00 | 0.00 | 38 | 1012.1 |
| 20260506213012 | 72 | 280 | 7.0 | 0.0 | 0.00 | 0.00 | 0.00 | 42 | 1012.1 |
| 20260506211511 | 73 | 274 | 4.3 | 0.0 | 0.00 | 0.00 | 0.00 | 41 | 1012.2 |
| 20260506204602 | 72 | 302 | 3.5 | 0.0 | 0.00 | 0.00 | 0.00 | 40 | 1012.4 |
| 20260506203057 | 73 | 278 | 3.5 | 0.0 | 0.00 | 0.00 | 0.00 | 39 | 1012.6 |
| 20260506201558 | 72 | 282 | 4.3 | 0.0 | 0.00 | 0.00 | 0.00 | 40 | 1012.7 |
| 20260506200109 | 71 | 279 | 4.3 | 0.0 | 0.00 | 0.00 | 0.00 | 40 | 1012.6 |
| 20260506194606 | 71 | 248 | 2.6 | 0.0 | 0.00 | 0.00 | 0.00 | 41 | 1012.7 |
| 20260506193050 | 71 | 285 | 5.2 | 0.0 | 0.00 | 0.00 | 0.00 | 42 | 1012.9 |
| 20260506191549 | 70 | 233 | 3.5 | 0.0 | 0.00 | 0.00 | 0.00 | 41 | 1013.0 |
| 20260506190030 | 70 | 288 | 3.5 | 0.0 | 0.00 | 0.00 | 0.00 | 43 | 1013.1 |
| 20260506184530 | 69 | 218 | 1.7 | 0.0 | 0.00 | 0.00 | 0.00 | 38 | 1013.2 |
| 20260506183011 | 68 | 283 | 2.6 | 0.0 | 0.00 | 0.00 | 0.00 | 42 | 1013.4 |
| 20260506181513 | 69 | 133 | 0.9 | 0.0 | 0.00 | 0.00 | 0.00 | 42 | 1013.5 |
| 20260506180051 | 68 | 143 | 1.7 | 0.0 | 0.00 | 0.00 | 0.00 | 42 | 1013.5 |
| 20260506174548 | 67 | 138 | 1.7 | 0.0 | 0.00 | 0.00 | 0.00 | 41 | 1013.6 |
| 20260506173029 | 66 | 131 | 0.9 | 0.0 | 0.00 | 0.00 | 0.00 | 41 | 1013.6 |
| 20260506171538 | 66 | 128 | 0.0 | 0.0 | 0.00 | 0.00 | 0.00 | 41 | 1013.6 |
| 20260506170008 | 65 | 102 | 0.9 | 0.0 | 0.00 | 0.00 | 0.00 | 42 | 1013.7 |
| 20260506164506 | 63 | 36 | 0.0 | 0.0 | 0.00 | 0.00 | 0.00 | 42 | 1013.9 |
| 20260506163051 | 63 | 36 | 0.9 | 0.0 | 0.00 | 0.00 | 0.00 | 43 | 1014.0 |
| 20260506161550 | 62 | 35 | 0.9 | 0.0 | 0.00 | 0.00 | 0.00 | 43 | 1014.2 |
| 20260506160034 | 61 | 304 | 0.0 | 0.0 | 0.00 | 0.00 | 0.00 | 46 | 1014.1 |
| 20260506154520 | 60 | 304 | 0.9 | 0.0 | 0.00 | 0.00 | 0.00 | 48 | 1014.5 |
| 20260506153100 | 59 | 304 | 0.0 | 0.0 | 0.00 | 0.00 | 0.00 | 48 | 1014.4 |
| 20260506151608 | 58 | 304 | 0.0 | 0.0 | 0.00 | 0.00 | 0.00 | 51 | 1014.4 |
| 20260506150035 | 55 | 304 | 0.0 | 0.0 | 0.00 | 0.00 | 0.00 | 60 | 1014.6 |
| 20260506144534 | 52 | 304 | 0.0 | 0.0 | 0.00 | 0.00 | 0.00 | 66 | 1014.6 |
| 20260506143035 | 49 | 304 | 0.0 | 0.0 | 0.00 | 0.00 | 0.00 | 78 | 1014.7 |
| 20260506141517 | 46 | 304 | 0.0 | 0.0 | 0.00 | 0.00 | 0.00 | 81 | 1014.8 |
| 20260506140111 | 44 | 304 | 0.0 | 0.0 | 0.00 | 0.00 | 0.00 | 81 | 1014.9 |
| 20260506134558 | 42 | 304 | 0.0 | 0.0 | 0.00 | 0.00 | 0.00 | 82 | 1014.9 |
| 20260506133042 | 42 | 304 | 0.0 | 0.0 | 0.00 | 0.00 | 0.00 | 83 | 1014.7 |
| 20260506131538 | 41 | 304 | 0.0 | 0.0 | 0.00 | 0.00 | 0.00 | 84 | 1014.5 |
| 20260506130019 | 40 | 304 | 0.0 | 0.0 | 0.00 | 0.00 | 0.00 | 84 | 1014.5 |
| 20260506124517 | 40 | 304 | 0.0 | 0.0 | 0.00 | 0.00 | 0.00 | 84 | 1014.3 |
| 20260506123058 | 39 | 304 | 0.0 | 0.0 | 0.00 | 0.00 | 0.00 | 83 | 1014.1 |
| 20260506121556 | 39 | 304 | 0.0 | 0.0 | 0.00 | 0.00 | 0.00 | 83 | 1013.9 |
| 20260506120043 | 40 | 304 | 0.0 | 0.0 | 0.00 | 0.00 | 0.00 | 83 | 1013.8 |
| 20260506114545 | 40 | 304 | 0.0 | 0.0 | 0.00 | 0.00 | 0.00 | 82 | 1013.7 |
| 20260506113040 | 40 | 304 | 0.0 | 0.0 | 0.00 | 0.00 | 0.00 | 82 | 1013.7 |
| 20260506111540 | 40 | 304 | 0.0 | 0.0 | 0.00 | 0.00 | 0.00 | 81 | 1013.6 |
| 20260506110046 | 40 | 304 | 0.0 | 0.0 | 0.00 | 0.00 | 0.00 | 81 | 1013.6 |
| 20260506104537 | 40 | 304 | 0.0 | 0.0 | 0.00 | 0.00 | 0.00 | 81 | 1013.6 |
| 20260506103036 | 40 | 304 | 0.0 | 0.0 | 0.00 | 0.00 | 0.00 | 80 | 1013.6 |
| 20260506101548 | 41 | 304 | 0.0 | 0.0 | 0.00 | 0.00 | 0.00 | 80 | 1013.5 |
| 20260506100014 | 41 | 304 | 0.0 | 0.0 | 0.00 | 0.00 | 0.00 | 79 | 1013.3 |
| 20260506094516 | 41 | 304 | 0.0 | 0.0 | 0.00 | 0.00 | 0.00 | 78 | 1013.4 |
| 20260506093103 | 42 | 304 | 0.0 | 0.0 | 0.00 | 0.00 | 0.00 | 77 | 1013.3 |
| 20260506091553 | 42 | 304 | 0.0 | 0.0 | 0.00 | 0.00 | 0.00 | 76 | 1013.3 |
| 20260506090036 | 43 | 304 | 0.0 | 0.0 | 0.00 | 0.00 | 0.00 | 75 | 1013.2 |
| 20260506084533 | 43 | 304 | 0.0 | 0.0 | 0.00 | 0.00 | 0.00 | 78 | 1013.2 |
| 20260506083014 | 43 | 304 | 0.0 | 0.0 | 0.00 | 0.00 | 0.00 | 78 | 1013.0 |
| 20260506081512 | 42 | 304 | 0.0 | 0.0 | 0.00 | 0.00 | 0.00 | 79 | 1012.7 |
| 20260506073038 | 43 | 304 | 0.0 | 0.0 | 0.00 | 0.00 | 0.00 | 78 | 1012.8 |
| 20260506071530 | 44 | 304 | 0.0 | 0.0 | 0.00 | 0.00 | 0.00 | 76 | 1012.6 |
| 20260506061545 | 47 | 304 | 0.0 | 0.0 | 0.00 | 0.00 | 0.00 | 70 | 1012.1 |
| 20260506044535 | 51 | 304 | 0.0 | 0.0 | 0.00 | 0.00 | 0.00 | 66 | 1011.0 |